Buoy 43528

sailwx.info

Track history (hours):
 
Tides and Currents Weather Stations Pressure Air Temp Water Temp Dewpoint Dewpoint Depression Visibility Wind Speed Wind Dir Waves Ship Positions

Drifting buoy 43528

Last reported at 2014-Oct-22 02:00 UTC. Time now 2014-Oct-22 04:46 UTC.
Position N 13°17' W 124°44'.

Water temperature 28.1 ° C

Date/timePositionNaut miles runAvg speedWind from/ knotsBaromVisibWave heightAir tempDewpointWater temp
2014-Oct-22 02:00N 13°17' W 124°44'2 2.1 28.1
2014-Oct-22 01:00N 13°17' W 124°42'0 0.0 28.1
2014-Oct-22 00:00N 13°17' W 124°42'0 0.0 28.1
2014-Oct-21 22:00N 13°17' W 124°42'1 0.2 28.1
2014-Oct-21 18:00N 13°17' W 124°42'1 0.2 28.0
2014-Oct-21 14:00N 13°17' W 124°42'1 0.5 27.9
2014-Oct-21 12:00N 13°18' W 124°43'2 0.4 28.0
2014-Oct-21 05:00N 13°16' W 124°43'1 0.3 28.0
2014-Oct-21 03:00N 13°15' W 124°43'5 1.0 28.1
2014-Oct-20 22:00N 13°11' W 124°40'0 0.0 28.1
2014-Oct-20 21:00N 13°11' W 124°40'0 0.0 28.1
2014-Oct-20 19:00N 13°11' W 124°40'0 0.4 28.1
2014-Oct-20 18:00N 13°11' W 124°41'0 0.2 28.1
2014-Oct-20 17:00N 13°11' W 124°41'3 2.7 28.0
2014-Oct-20 16:00N 13°09' W 124°39'2 0.8 28.0
2014-Oct-20 14:00N 13°08' W 124°37'0 0.0 28.0
2014-Oct-20 13:00N 13°08' W 124°37'1 1.3 28.0
2014-Oct-20 12:00N 13°08' W 124°36'1 0.5 28.0
2014-Oct-20 10:00N 13°07' W 124°35'0 0.1 28.0
2014-Oct-20 09:00N 13°08' W 124°35'3 0.7 28.0
2014-Oct-20 05:00N 13°07' W 124°32'1 0.8 28.1
2014-Oct-20 04:00N 13°08' W 124°32'1 0.3 28.1
2014-Oct-20 02:00N 13°08' W 124°32'0 0.0 28.2
2014-Oct-20 01:00N 13°08' W 124°32'0 0.4 28.2
2014-Oct-20 00:00N 13°08' W 124°31'1 0.7 28.2
2014-Oct-19 22:00N 13°09' W 124°30'1 0.2 28.2
2014-Oct-19 18:00N 13°08' W 124°30'0 0.4 28.1
2014-Oct-19 17:00N 13°08' W 124°29'0 0.0 28.0
2014-Oct-19 16:00N 13°08' W 124°29'0 0.1 28.0
2014-Oct-19 14:00N 13°08' W 124°29'1 0.4 28.0
2014-Oct-19 11:00N 13°07' W 124°30'0 0.0 28.0
2014-Oct-19 10:00N 13°07' W 124°30'1 0.7 28.1
2014-Oct-19 09:00N 13°06' W 124°29'0 0.0 28.1
2014-Oct-19 08:00N 13°06' W 124°29'1 0.4 28.1
2014-Oct-19 06:00N 13°06' W 124°29'1 0.6 28.1
2014-Oct-19 05:00N 13°05' W 124°29'2 0.6 28.1
2014-Oct-19 02:00N 13°04' W 124°29'3 0.7 28.1
2014-Oct-18 22:00N 13°01' W 124°28'2 1.1 28.1
2014-Oct-18 20:00N 12°59' W 124°27'1 1.2 28.0
2014-Oct-18 19:00N 12°58' W 124°26'1 0.8 28.0
2014-Oct-18 18:00N 12°58' W 124°25'0 0.5 28.0
2014-Oct-18 17:00N 12°58' W 124°25'2 0.8 28.0
2014-Oct-18 14:00N 12°57' W 124°23'1 1.4 28.1
2014-Oct-18 13:00N 12°56' W 124°22'0 0.0 28.1
2014-Oct-18 12:00N 12°56' W 124°22'0 0.2 28.2
2014-Oct-18 11:00N 12°56' W 124°22'1 1.0 28.2
2014-Oct-18 10:00N 12°55' W 124°21'2 1.5 28.2
2014-Oct-18 09:00N 12°55' W 124°19'1 0.3 28.2
2014-Oct-18 05:00N 12°56' W 124°18'2 1.0 28.2
2014-Oct-18 03:00N 12°56' W 124°16'2 0.4 28.3
2014-Oct-17 22:00N 12°56' W 124°15'1 0.9 28.4
2014-Oct-17 21:00N 12°57' W 124°14'0 0.0 28.3
2014-Oct-17 20:00N 12°57' W 124°14'2 0.9 28.3
2014-Oct-17 18:00N 12°57' W 124°12'0 0.4 28.2
2014-Oct-17 17:00N 12°57' W 124°12'2 1.6 28.2
2014-Oct-17 16:00N 12°58' W 124°10'1 0.3 28.1
2014-Oct-17 14:00N 12°59' W 124°10'0 0.1 28.1
2014-Oct-17 12:00N 12°59' W 124°10'0 0.2 28.3
2014-Oct-17 11:00N 12°59' W 124°10'2 0.8 28.6
2014-Oct-17 09:00N 13°01' W 124°10'1 0.2 28.7
2014-Oct-17 04:00N 13°02' W 124°10'0 0.0 29.4
2014-Oct-17 03:00N 13°02' W 124°10'0 0.0 29.7
2014-Oct-17 02:00N 13°02' W 124°10'1 0.5 29.7
2014-Oct-17 01:00N 13°02' W 124°11'0 0.0 29.8
2014-Oct-17 00:00N 13°02' W 124°11'1 0.3 30.5
2014-Oct-16 22:00N 13°01' W 124°11'1 0.6 30.5
2014-Oct-16 21:00N 13°01' W 124°11'1 0.3 30.3
2014-Oct-16 18:00N 12°60' W 124°11'3 0.5 28.7
2014-Oct-16 12:00N 12°57' W 124°13'1 0.6 28.1
2014-Oct-16 11:00N 12°57' W 124°12'3 1.7 28.1
2014-Oct-16 09:00N 12°54' W 124°10'2 0.2 28.1
2014-Oct-16 01:00N 12°54' W 124°08'1 0.1 28.6
2014-Oct-15 19:00N 12°55' W 124°08'1 0.7 28.0
2014-Oct-15 17:00N 12°56' W 124°07'1 1.5 27.8
2014-Oct-15 16:00N 12°58' W 124°08'0 0.1 27.7
2014-Oct-15 14:00N 12°58' W 124°08'1 1.0 27.7
2014-Oct-15 13:00N 12°59' W 124°08'2 1.9 27.7
2014-Oct-15 12:00N 13°00' W 124°10'3 1.5 27.7
2014-Oct-15 10:00N 13°01' W 124°13'1 0.2 27.8
2014-Oct-15 06:00N 13°01' W 124°13'2 0.8 27.8
2014-Oct-15 03:00N 13°02' W 124°16'2 1.7 27.8
2014-Oct-15 02:00N 13°01' W 124°18'1 0.9 27.8
2014-Oct-15 01:00N 13°01' W 124°18'1 0.7 27.8
2014-Oct-14 23:00N 13°00' W 124°20'6 1.2 27.9
2014-Oct-14 18:00N 12°58' W 124°25'2 0.4 27.9
2014-Oct-14 14:00N 12°56' W 124°26'1 1.0 27.8
2014-Oct-14 13:00N 12°56' W 124°26'2 1.7 27.8
2014-Oct-14 12:00N 12°54' W 124°26'2 0.3 27.8
2014-Oct-14 06:00N 12°52' W 124°26'0 0.3 28.0
2014-Oct-14 05:00N 12°52' W 124°26'0 0.4 28.0
2014-Oct-14 04:00N 12°52' W 124°26'1 0.9 28.0
2014-Oct-14 03:00N 12°52' W 124°25'0 0.0 28.1
2014-Oct-14 02:00N 12°52' W 124°25'1 1.2 28.2
2014-Oct-14 01:00N 12°53' W 124°25'0 0.1 28.3
2014-Oct-14 00:00N 12°53' W 124°25'2 0.8 28.3
2014-Oct-13 22:00N 12°54' W 124°27'2 0.7 28.3
2014-Oct-13 19:00N 12°55' W 124°29'0 0.0 28.0
2014-Oct-13 18:00N 12°55' W 124°29'0 0.3 27.9
2014-Oct-13 17:00N 12°55' W 124°29'4 2.2 27.8
2014-Oct-13 15:00N 12°56' W 124°34'3 1.1 27.8
2014-Oct-13 12:00N 12°56' W 124°37'5 0.8 27.9
2014-Oct-13 06:00N 12°54' W 124°42'2 2.4 27.9
2014-Oct-13 05:00N 12°53' W 124°44'3 0.9 27.9
2014-Oct-13 02:00N 12°52' W 124°47'1 1.1 27.9
2014-Oct-13 01:00N 12°52' W 124°48'1 0.9 27.9
2014-Oct-13 00:00N 12°52' W 124°49'3 0.5 27.9
2014-Oct-12 18:00N 12°50' W 124°50'3 0.6 28.0
2014-Oct-12 14:00N 12°47' W 124°50'1 0.5 28.0
2014-Oct-12 12:00N 12°46' W 124°49'3 1.7 28.0
2014-Oct-12 10:00N 12°44' W 124°47'0 0.0 28.0
2014-Oct-12 06:00N 12°44' W 124°47'1 0.8 28.1
2014-Oct-12 05:00N 12°43' W 124°48'3 3.4 28.1
2014-Oct-12 04:00N 12°40' W 124°45'   28.1
Track history (hours):
 
Tides and Currents Weather Stations Pressure Air Temp Water Temp Dewpoint Dewpoint Depression Visibility Wind Speed Wind Dir Waves Ship Positions

Drifting buoy 43528

Last reported at 2014-Oct-22 02:00 UTC. Time now 2014-Oct-22 04:46 UTC.
Position N 13°17' W 124°44'.

Water temperature 28.1 ° C

Date/timePositionNaut miles runAvg speedWind from/ knotsBaromVisibWave heightAir tempDewpointWater temp
2014-Oct-22 02:00N 13°17' W 124°44'2 2.1 28.1
2014-Oct-22 01:00N 13°17' W 124°42'0 0.0 28.1
2014-Oct-22 00:00N 13°17' W 124°42'0 0.0 28.1
2014-Oct-21 22:00N 13°17' W 124°42'1 0.2 28.1
2014-Oct-21 18:00N 13°17' W 124°42'1 0.2 28.0
2014-Oct-21 14:00N 13°17' W 124°42'1 0.5 27.9
2014-Oct-21 12:00N 13°18' W 124°43'2 0.4 28.0
2014-Oct-21 05:00N 13°16' W 124°43'1 0.3 28.0
2014-Oct-21 03:00N 13°15' W 124°43'5 1.0 28.1
2014-Oct-20 22:00N 13°11' W 124°40'0 0.0 28.1
2014-Oct-20 21:00N 13°11' W 124°40'0 0.0 28.1
2014-Oct-20 19:00N 13°11' W 124°40'0 0.4 28.1
2014-Oct-20 18:00N 13°11' W 124°41'0 0.2 28.1
2014-Oct-20 17:00N 13°11' W 124°41'3 2.7 28.0
2014-Oct-20 16:00N 13°09' W 124°39'2 0.8 28.0
2014-Oct-20 14:00N 13°08' W 124°37'0 0.0 28.0
2014-Oct-20 13:00N 13°08' W 124°37'1 1.3 28.0
2014-Oct-20 12:00N 13°08' W 124°36'1 0.5 28.0
2014-Oct-20 10:00N 13°07' W 124°35'0 0.1 28.0
2014-Oct-20 09:00N 13°08' W 124°35'3 0.7 28.0
2014-Oct-20 05:00N 13°07' W 124°32'1 0.8 28.1
2014-Oct-20 04:00N 13°08' W 124°32'1 0.3 28.1
2014-Oct-20 02:00N 13°08' W 124°32'0 0.0 28.2
2014-Oct-20 01:00N 13°08' W 124°32'0 0.4 28.2
2014-Oct-20 00:00N 13°08' W 124°31'1 0.7 28.2
2014-Oct-19 22:00N 13°09' W 124°30'1 0.2 28.2
2014-Oct-19 18:00N 13°08' W 124°30'0 0.4 28.1
2014-Oct-19 17:00N 13°08' W 124°29'0 0.0 28.0
2014-Oct-19 16:00N 13°08' W 124°29'0 0.1 28.0
2014-Oct-19 14:00N 13°08' W 124°29'1 0.4 28.0
2014-Oct-19 11:00N 13°07' W 124°30'0 0.0 28.0
2014-Oct-19 10:00N 13°07' W 124°30'1 0.7 28.1
2014-Oct-19 09:00N 13°06' W 124°29'0 0.0 28.1
2014-Oct-19 08:00N 13°06' W 124°29'1 0.4 28.1
2014-Oct-19 06:00N 13°06' W 124°29'1 0.6 28.1
2014-Oct-19 05:00N 13°05' W 124°29'2 0.6 28.1
2014-Oct-19 02:00N 13°04' W 124°29'3 0.7 28.1
2014-Oct-18 22:00N 13°01' W 124°28'2 1.1 28.1
2014-Oct-18 20:00N 12°59' W 124°27'1 1.2 28.0
2014-Oct-18 19:00N 12°58' W 124°26'1 0.8 28.0
2014-Oct-18 18:00N 12°58' W 124°25'0 0.5 28.0
2014-Oct-18 17:00N 12°58' W 124°25'2 0.8 28.0
2014-Oct-18 14:00N 12°57' W 124°23'1 1.4 28.1
2014-Oct-18 13:00N 12°56' W 124°22'0 0.0 28.1
2014-Oct-18 12:00N 12°56' W 124°22'0 0.2 28.2
2014-Oct-18 11:00N 12°56' W 124°22'1 1.0 28.2
2014-Oct-18 10:00N 12°55' W 124°21'2 1.5 28.2
2014-Oct-18 09:00N 12°55' W 124°19'1 0.3 28.2
2014-Oct-18 05:00N 12°56' W 124°18'2 1.0 28.2
2014-Oct-18 03:00N 12°56' W 124°16'2 0.4 28.3
2014-Oct-17 22:00N 12°56' W 124°15'1 0.9 28.4
2014-Oct-17 21:00N 12°57' W 124°14'0 0.0 28.3
2014-Oct-17 20:00N 12°57' W 124°14'2 0.9 28.3
2014-Oct-17 18:00N 12°57' W 124°12'0 0.4 28.2
2014-Oct-17 17:00N 12°57' W 124°12'2 1.6 28.2
2014-Oct-17 16:00N 12°58' W 124°10'1 0.3 28.1
2014-Oct-17 14:00N 12°59' W 124°10'0 0.1 28.1
2014-Oct-17 12:00N 12°59' W 124°10'0 0.2 28.3
2014-Oct-17 11:00N 12°59' W 124°10'2 0.8 28.6
2014-Oct-17 09:00N 13°01' W 124°10'1 0.2 28.7
2014-Oct-17 04:00N 13°02' W 124°10'0 0.0 29.4
2014-Oct-17 03:00N 13°02' W 124°10'0 0.0 29.7
2014-Oct-17 02:00N 13°02' W 124°10'1 0.5 29.7
2014-Oct-17 01:00N 13°02' W 124°11'0 0.0 29.8
2014-Oct-17 00:00N 13°02' W 124°11'1 0.3 30.5
2014-Oct-16 22:00N 13°01' W 124°11'1 0.6 30.5
2014-Oct-16 21:00N 13°01' W 124°11'1 0.3 30.3
2014-Oct-16 18:00N 12°60' W 124°11'3 0.5 28.7
2014-Oct-16 12:00N 12°57' W 124°13'1 0.6 28.1
2014-Oct-16 11:00N 12°57' W 124°12'3 1.7 28.1
2014-Oct-16 09:00N 12°54' W 124°10'2 0.2 28.1
2014-Oct-16 01:00N 12°54' W 124°08'1 0.1 28.6
2014-Oct-15 19:00N 12°55' W 124°08'1 0.7 28.0
2014-Oct-15 17:00N 12°56' W 124°07'1 1.5 27.8
2014-Oct-15 16:00N 12°58' W 124°08'0 0.1 27.7
2014-Oct-15 14:00N 12°58' W 124°08'1 1.0 27.7
2014-Oct-15 13:00N 12°59' W 124°08'2 1.9 27.7
2014-Oct-15 12:00N 13°00' W 124°10'3 1.5 27.7
2014-Oct-15 10:00N 13°01' W 124°13'1 0.2 27.8
2014-Oct-15 06:00N 13°01' W 124°13'2 0.8 27.8
2014-Oct-15 03:00N 13°02' W 124°16'2 1.7 27.8
2014-Oct-15 02:00N 13°01' W 124°18'1 0.9 27.8
2014-Oct-15 01:00N 13°01' W 124°18'1 0.7 27.8
2014-Oct-14 23:00N 13°00' W 124°20'6 1.2 27.9
2014-Oct-14 18:00N 12°58' W 124°25'2 0.4 27.9
2014-Oct-14 14:00N 12°56' W 124°26'1 1.0 27.8
2014-Oct-14 13:00N 12°56' W 124°26'2 1.7 27.8
2014-Oct-14 12:00N 12°54' W 124°26'2 0.3 27.8
2014-Oct-14 06:00N 12°52' W 124°26'0 0.3 28.0
2014-Oct-14 05:00N 12°52' W 124°26'0 0.4 28.0
2014-Oct-14 04:00N 12°52' W 124°26'1 0.9 28.0
2014-Oct-14 03:00N 12°52' W 124°25'0 0.0 28.1
2014-Oct-14 02:00N 12°52' W 124°25'1 1.2 28.2
2014-Oct-14 01:00N 12°53' W 124°25'0 0.1 28.3
2014-Oct-14 00:00N 12°53' W 124°25'2 0.8 28.3
2014-Oct-13 22:00N 12°54' W 124°27'2 0.7 28.3
2014-Oct-13 19:00N 12°55' W 124°29'0 0.0 28.0
2014-Oct-13 18:00N 12°55' W 124°29'0 0.3 27.9
2014-Oct-13 17:00N 12°55' W 124°29'4 2.2 27.8
2014-Oct-13 15:00N 12°56' W 124°34'3 1.1 27.8
2014-Oct-13 12:00N 12°56' W 124°37'5 0.8 27.9
2014-Oct-13 06:00N 12°54' W 124°42'2 2.4 27.9
2014-Oct-13 05:00N 12°53' W 124°44'3 0.9 27.9
2014-Oct-13 02:00N 12°52' W 124°47'1 1.1 27.9
2014-Oct-13 01:00N 12°52' W 124°48'1 0.9 27.9
2014-Oct-13 00:00N 12°52' W 124°49'3 0.5 27.9
2014-Oct-12 18:00N 12°50' W 124°50'3 0.6 28.0
2014-Oct-12 14:00N 12°47' W 124°50'1 0.5 28.0
2014-Oct-12 12:00N 12°46' W 124°49'3 1.7 28.0
2014-Oct-12 10:00N 12°44' W 124°47'0 0.0 28.0
2014-Oct-12 06:00N 12°44' W 124°47'1 0.8 28.1
2014-Oct-12 05:00N 12°43' W 124°48'3 3.4 28.1
2014-Oct-12 04:00N 12°40' W 124°45'   28.1

Dump ship's entire track history